SCP
-0 -0 -0 -0 -0 -0 0 -0 0 0 0 0 0 0 0 0 0 0 0 0 0 0 0 0 0 0 0 0 0 0 0 0 0 0 0 0 0 0 0 0 0 0 0 0 0
-0 -0 -0 -0 -0 -0 0 0 0 0 0 0 0 0 0 0 0 0 0 0 0 -0 0 0 0 0 0 0 0 0 0 0 0 0 0 0 0 0 0 0 0 0 0 0 0
-0 -0 -0 -0 0 0 0 0 0 0 0 0 0 0 0 0 0 0 0 -0 -0 -0 0 0 0 0 0 0 0 0 0 0 0 0 0 0 0 0 0 0 0 0 0 0 0
-0 -0 -0 0 0 0 0 0 0 0 0 0 0 0 0 0 0 0 -0 -0 -0 -0 0 0 0 0 0 0 0 0 0 0 0 0 0 0 0 0 0 0 0 0 0 0 0
0 0 0 0 0 0 0 0 0 0 0 0 0 0 0 0 0 -0 -0 -0 -0 0 0 0 0 0 0 0 0 0 0 0 0 0 0 0 0 0 0 0 0 0 0 0 0
0 0 0 0 0 0 0 0 0 0 0 0 0 0 0 0 0 -0 -0 0 0 0 0 0 0 0 0 0 0 0 0 0 0 0 0 0 0 0 0 0 0 0 0 0 -0
0 0 0 0 0 0 0 0 0 0 0 0 0 0 0 0 -0 0 0 0 0 0 0 -0 0 0 0 0 0 0 0 0 0 0 0 0 0 0 0 0 0 0 -0 -0 0
0 0 0 0 0 0 0 0 0 -0 0 0 0 0 0 0 0 0 0 0 0 0 -0 0 0 0 0 0 0 0 0 0 0 0 0 0 0 0 0 0 0 0 0 0 0
0 0 0 0 0 0 0 0 -0 0 0 0 0 0 0 0 0 0 0 0 -0 -0 -0 0 0 0 0 0 0 0 0 0 0 0 0 0 0 0 0 0 0 0 0 0 0
0 0 0 0 0 0 0 0 0 0 0 0 0 0 0 0 0 0 0 -0 -0 -0 0 0 0 0 0 0 0 0 0 0 0 0 0 0 0 0 0 0 0 0 0 0 0
0 0 0 0 0 0 0 -0 0 0 0 0 0 0 0 0 0 0 0 0 -0 0 0 0 0 0 0 0 0 0 0 0 0 0 0 0 0 0 0 0 0 0 0 0 0
0 0 0 0 0 0 0 0 0 0 0 0 0 0 0 0 0 0 0 0 0 -0 0 0 0 0 0 0 0 0 0 0 0 0 0 0 0 0 0 0 0 0 0 0 0
0 0 0 0 0 0 0 0 0 0 0 0 0 0 0 0 0 0 0 0 0 0 0 0 0 0 0 0 0 0 0 0 0 0 0 0 0 0 0 0 0 0 0 0 0
0 0 0 0 0 0 0 0 0 0 0 0 0 0 0 0 0 0 0 0 0 0 0 0 0 0 0 0 0 0 0 0 0 0 0 0 0 0 0 0 0 0 0 0 0
0 0 0 0 0 0 0 0 0 0 0 0 0 0 0 0 0 0 0 0 0 0 0 0 0 0 0 0 0 0 0 0 0 0 0 0 0 0 0 0 0 0 0 0 -0
0 0 0 0 0 0 0 0 0 0 0 0 0 0 0 0 0 0 0 0 0 0 0 0 0 0 0 0 0 0 0 0 0 0 0 0 0 0 0 0 0 0 0 0 -0
0 0 0 0 0 0 0 0 0 0 0 0 0 0 0 0 0 0 0 0 0 0 0 0 0 0 0 0 0 0 0 0 0 0 0 0 0 0 0 0 0 0 0 0 0
0 0 0 0 0 0 0 0 0 0 0 0 0 0 0 0 0 0 0 0 0 0 0 0 0 0 0 0 0 0 0 0 0 0 0 0 0 0 0 0 0 0 0 0 0
0 0 0 0 0 0 0 0 0 0 0 0 0 0 0 0 0 0 0 0 0 0 0 0 0 0 0 0 0 0 0 0 0 0 0 0 0 0 0 0 0 0 0 0 0
0 0 0 0 0 0 0 0 0 0 0 0 0 0 0 0 0 0 0 0 0 0 0 0 0 0 0 0 0 0 0 0 0 0 0 0 0 0 0 0 0 0 0 0 0
0 0 0 0 0 0 0 0 0 0 0 0 0 0 0 0 0 0 0 0 0 0 0 0 0 0 0 0 0 0 0 0 0 0 0 0 0 0 0 0 0 0 0 0 0
0 0 0 0 0 0 0 0 0 0 0 0 0 0 0 0 0 0 0 0 0 0 0 0 0 0 0 0 0 0 0 0 0 0 0 0 0 0 0 0 0 0 0 0 0
0 0 0 0 0 0 0 0 0 0 0 0 0 0 0 0 0 0 0 0 0 0 0 0 0 0 0 0 0 0 0 0 0 0 0 0 0 0 0 0 0 0 0 0 0
0 0 0 0 0 0 0 0 0 0 0 0 0 0 0 0 0 0 0 0 0 0 0 0 0 0 0 0 0 0 0 0 0 0 0 0 0 0 0 0 0 0 0 0 0
0 0 0 0 0 0 0 0 0 0 0 0 0 0 0 0 0 0 0 0 0 0 0 0 0 0 0 0 0 0 0 0 0 0 0 0 0 0 0 0 0 0 0 0 0
0 0 0 0 0 0 0 0 0 0 0 0 0 0 0 0 0 0 0 0 0 0 0 0 0 0 0 0 0 0 0 0 0 0 0 0 0 0 0 0 0 0 0 0 0
0 0 0 0 0 0 0 0 0 0 0 0 0 0 0 0 0 0 0 0 0 0 0 0 0 0 0 0 0 0 0 0 0 0 0 0 0 0 0 0 0 0 0 0 0
Wind_Speed_500mb
29 31 33 36 40 44 45 48 52 53 52 60 66 60 39 19 16 16 26 21 19 19 20 19 19 24 13 8 7 4 7 4 8 9 11 9 5 8 19 24 26 23 39 50 57
28 30 33 36 38 41 42 44 47 49 50 61 66 60 19 13 14 23 22 19 20 21 18 17 19 25 8 6 5 7 5 13 8 8 10 15 15 17 9 16 18 35 53 43 47
29 31 33 35 38 39 40 41 44 47 45 60 68 47 19 4 9 16 17 17 19 19 17 15 13 12 5 6 6 3 9 6 10 24 19 15 26 9 3 11 40 40 62 63 57
29 32 34 36 38 37 38 40 44 49 49 62 68 38 21 9 4 8 14 21 25 18 15 12 11 6 4 1 3 5 19 14 6 4 8 14 29 15 17 40 55 50 50 62 78
28 31 35 37 38 37 37 40 44 48 47 64 65 31 5 12 10 9 23 27 23 18 14 13 7 4 1 6 9 5 9 20 13 34 33 28 34 18 30 41 36 41 51 79 71
30 33 36 39 40 39 38 41 43 48 42 62 61 19 2 9 9 12 18 22 30 29 20 13 9 12 4 3 2 8 20 50 31 24 6 12 12 10 16 34 49 54 68 59 57
29 32 37 40 41 41 41 39 45 46 42 61 51 7 17 11 9 16 16 22 33 30 21 14 8 5 5 5 8 9 12 19 3 8 1 12 10 11 23 40 75 61 60 52 46
29 34 37 41 42 42 41 41 43 44 43 66 34 6 10 12 17 22 20 15 23 21 15 15 11 3 2 10 9 9 7 10 15 18 10 16 13 3 19 66 62 65 64 43 47
29 33 37 41 43 43 40 41 41 36 51 52 12 5 9 8 13 29 26 18 12 14 13 14 6 7 6 6 9 12 10 10 22 13 16 7 35 6 59 43 49 54 47 46 64
31 34 38 42 44 44 43 45 40 24 57 28 5 4 5 4 5 25 31 12 7 12 8 16 11 7 8 12 6 13 10 8 15 15 9 26 37 40 48 49 40 45 51 51 61
32 34 38 42 42 42 48 52 50 10 54 19 21 6 5 12 6 27 27 7 17 21 11 14 13 1 4 3 6 10 7 22 12 14 15 30 49 49 33 36 29 45 46 51 64
31 33 37 40 40 33 43 35 24 18 24 21 8 4 6 15 5 25 20 9 12 10 11 13 4 5 8 4 5 9 11 28 19 4 3 26 69 35 21 27 41 40 40 52 65
31 32 35 38 40 32 34 35 32 32 8 8 3 2 3 12 5 17 22 8 10 7 3 9 10 9 3 9 10 7 9 11 22 35 18 24 42 40 18 38 49 53 38 55 54
31 32 35 34 21 34 25 35 33 30 7 7 3 2 3 9 2 15 13 11 6 2 3 10 6 2 9 6 4 7 1 13 22 28 27 19 31 25 8 18 17 40 32 64 62
31 32 33 30 27 26 28 30 30 8 10 6 3 3 6 2 11 4 17 5 6 4 10 12 5 4 6 5 3 11 7 13 19 33 15 9 6 11 16 19 18 28 42 57 56
31 31 31 28 26 21 26 26 18 9 12 4 2 9 6 8 10 15 6 9 6 5 3 11 5 3 6 2 8 10 12 20 3 5 3 6 7 14 6 7 23 24 48 62 66
30 30 30 25 22 22 19 16 9 6 5 3 4 6 3 7 7 12 9 13 5 12 7 14 4 4 8 6 10 22 11 10 11 7 11 9 25 8 8 10 9 20 65 94 98
31 30 30 25 23 16 5 10 8 9 13 3 3 3 11 4 1 8 6 4 9 4 0 3 8 8 4 6 5 4 4 6 13 6 30 28 11 4 11 53 48 56 77 101 95
32 33 32 27 23 15 8 4 14 13 4 3 10 4 3 5 2 2 3 9 7 4 8 3 9 6 8 2 5 2 4 2 5 6 6 10 11 35 20 36 47 42 82 85 85
34 33 34 33 26 16 6 15 12 9 9 4 10 8 8 7 5 5 10 6 9 2 2 3 10 4 3 8 14 12 0 2 5 9 11 22 29 12 37 40 33 55 80 85 96
29 12 17 20 21 15 9 16 12 14 15 14 14 9 13 11 11 9 8 3 7 3 7 3 5 4 6 6 7 4 3 3 6 7 8 10 26 4 37 28 49 61 78 89 96
21 5 18 24 11 6 8 13 11 11 14 14 9 17 17 16 11 10 12 5 14 16 8 1 5 7 15 13 10 12 10 8 7 10 9 20 33 37 21 51 66 71 86 97 102
13 17 25 38 10 8 9 10 17 14 13 15 14 12 5 14 7 12 9 9 19 10 12 11 1 8 10 5 5 5 8 8 5 9 29 13 16 14 60 56 70 74 92 111 112
20 6 14 40 22 12 11 12 14 18 9 9 7 11 7 9 2 8 9 12 11 7 12 10 8 14 14 11 2 17 20 17 9 10 16 29 56 54 54 52 63 82 99 125 122
30 17 22 11 19 25 17 10 17 17 14 15 3 11 14 12 8 10 7 8 11 13 10 9 10 12 19 23 19 26 42 28 23 30 25 51 48 50 51 52 69 97 110 121 121
38 19 19 12 14 40 34 24 36 9 15 10 12 20 17 14 16 16 14 11 9 7 10 6 6 6 11 29 24 30 36 30 31 34 30 34 46 38 73 76 84 99 128 117 98
71 53 34 19 16 18 20 28 26 21 20 20 20 14 14 15 15 10 21 22 19 17 12 11 3 3 11 10 13 19 19 21 15 13 14 27 49 36 54 62 86 97 107 95 118
Wind_Direction_500mb
25 23 21 19 16 10 10 7 6 7 3 358 353 351 1 55 91 64 44 31 17 356 349 341 334 348 5 30 50 95 71 201 234 176 260 266 266 252 280 267 269 254 267 300 310
18 17 16 15 13 9 9 5 4 3 1 357 351 352 20 117 109 54 38 18 359 352 358 353 353 358 27 41 33 71 107 218 207 205 261 288 276 292 288 287 278 282 315 322 317
12 10 10 10 10 8 5 4 2 359 352 351 353 355 21 99 139 35 33 24 12 0 3 0 358 360 52 7 21 157 207 204 246 258 281 288 297 298 235 292 294 319 326 330 333
5 2 2 4 5 5 1 0 0 355 351 349 350 354 10 118 92 36 42 5 345 352 8 355 348 9 81 354 288 288 250 241 274 255 318 286 296 287 224 277 307 321 327 348 337
356 356 357 358 357 358 356 355 355 351 352 347 346 345 26 85 91 67 357 2 33 20 355 352 32 41 92 291 314 206 286 301 282 291 270 275 269 265 267 316 326 340 338 343 334
350 351 350 350 350 351 351 352 350 350 351 345 342 343 115 87 78 7 25 46 29 21 12 17 357 331 312 289 217 302 301 297 309 319 243 180 255 342 306 338 334 334 334 338 336
342 344 346 345 346 347 348 349 348 348 349 342 339 5 72 86 54 31 49 32 24 4 356 11 2 328 300 304 293 308 336 320 276 350 276 286 284 225 350 340 326 334 339 352 26
337 338 343 343 343 344 345 349 348 343 343 340 338 57 92 84 60 37 21 8 11 337 2 13 10 92 222 302 353 9 62 355 305 360 304 14 283 191 334 333 326 338 351 32 47
328 334 342 341 341 341 344 349 347 337 349 341 20 67 121 97 58 30 7 347 333 335 40 19 26 42 7 34 8 7 306 300 324 349 341 43 300 186 328 330 327 342 37 65 29
321 335 342 340 338 340 346 348 352 338 345 348 60 109 115 334 67 14 0 1 331 14 8 18 19 39 31 40 316 286 306 247 286 295 327 300 294 309 340 337 338 45 46 42 23
319 334 340 335 337 342 347 356 8 347 341 336 314 289 321 2 167 8 359 31 6 40 21 13 38 285 261 224 266 264 269 283 281 285 346 309 302 316 358 336 45 44 44 32 17
317 332 336 332 335 344 352 17 15 323 305 311 322 315 336 355 343 0 5 27 37 58 353 8 294 277 289 167 294 317 319 307 297 182 1 302 295 314 340 326 82 46 51 25 17
315 327 329 329 334 344 353 5 352 340 302 297 311 332 343 346 22 359 14 15 68 71 59 174 257 308 306 343 341 290 272 302 284 316 217 266 298 317 355 75 47 34 35 17 5
308 319 322 329 335 340 345 349 341 340 49 268 249 236 317 328 103 23 23 9 46 59 296 236 288 15 19 320 222 296 67 267 301 332 299 38 289 333 312 113 59 24 31 3 356
300 311 319 322 324 333 336 338 333 343 355 247 206 275 324 35 319 11 33 20 132 270 95 257 271 360 355 258 228 256 324 273 287 288 323 266 230 274 17 11 8 16 5 0 354
295 306 313 313 316 329 334 333 327 36 258 357 319 346 11 19 359 317 11 68 78 86 35 250 356 66 177 125 68 286 332 294 323 0 278 171 115 306 60 352 8 359 360 356 349
290 301 302 303 305 318 330 336 19 164 328 251 249 54 56 292 346 25 41 13 36 3 13 334 24 72 21 30 355 20 16 319 342 338 252 351 333 224 62 59 355 2 354 349 339
290 295 292 287 286 294 323 43 191 241 248 34 343 230 222 8 268 351 94 114 19 67 139 150 321 159 6 110 220 312 141 140 294 270 299 314 226 276 40 13 3 353 344 337 331
294 295 285 276 268 258 165 122 219 213 223 338 329 328 268 258 259 31 115 155 199 210 202 263 262 75 70 299 133 41 61 260 280 353 336 252 264 302 19 353 348 338 335 325 321
296 296 275 264 249 214 120 224 229 196 135 102 177 206 250 215 235 227 196 172 185 199 272 169 298 360 259 120 33 123 117 54 32 316 289 285 303 264 343 336 331 331 326 322 319
289 276 242 227 209 177 197 222 245 218 184 175 199 245 226 213 214 213 217 125 165 74 64 121 157 262 234 168 153 113 104 132 194 192 222 293 294 310 323 316 327 321 317 315 315
256 232 209 193 164 201 196 200 196 200 206 242 197 210 200 179 203 241 223 58 153 145 135 320 137 265 240 293 186 120 162 166 147 267 238 276 274 283 286 325 318 318 315 314 314
230 222 195 185 208 222 239 244 211 177 199 193 219 196 127 177 217 192 131 128 153 153 164 171 159 330 347 22 317 165 181 192 218 264 257 251 266 301 312 312 321 319 318 314 315
210 218 198 204 224 215 192 224 219 209 219 193 159 123 128 193 196 185 145 195 182 205 149 151 202 207 226 249 128 269 256 257 205 244 269 257 288 299 309 318 325 322 320 315 316
206 222 208 198 219 215 186 179 198 196 195 177 223 202 175 183 177 196 135 151 200 183 170 166 231 229 252 271 264 267 271 272 253 249 257 283 288 297 309 320 324 323 318 316 315
213 193 190 256 211 198 199 203 214 188 169 191 217 203 191 186 191 185 154 178 181 145 153 178 270 317 265 244 251 256 260 266 266 266 270 276 286 307 314 321 326 326 317 317 320
224 228 219 203 164 183 214 213 207 164 217 191 211 161 191 215 170 173 163 174 158 156 160 160 215 38 266 339 303 275 232 229 254 243 240 286 303 319 321 324 324 320 311 321 321
Wind_Speed_850mb
29 31 33 36 40 44 45 48 52 53 52 60 66 60 39 19 16 16 26 21 19 19 20 19 19 24 13 8 7 4 7 4 8 9 11 9 5 8 19 24 26 23 39 50 57
28 30 33 36 38 41 42 44 47 49 50 61 66 60 19 13 14 23 22 19 20 21 18 17 19 25 8 6 5 7 5 13 8 8 10 15 15 17 9 16 18 35 53 43 47
29 31 33 35 38 39 40 41 44 47 45 60 68 47 19 4 9 16 17 17 19 19 17 15 13 12 5 6 6 3 9 6 10 24 19 15 26 9 3 11 40 40 62 63 57
29 32 34 36 38 37 38 40 44 49 49 62 68 38 21 9 4 8 14 21 25 18 15 12 11 6 4 1 3 5 19 14 6 4 8 14 29 15 17 40 55 50 50 62 78
28 31 35 37 38 37 37 40 44 48 47 64 65 31 5 12 10 9 23 27 23 18 14 13 7 4 1 6 9 5 9 20 13 34 33 28 34 18 30 41 36 41 51 79 71
30 33 36 39 40 39 38 41 43 48 42 62 61 19 2 9 9 12 18 22 30 29 20 13 9 12 4 3 2 8 20 50 31 24 6 12 12 10 16 34 49 54 68 59 57
29 32 37 40 41 41 41 39 45 46 42 61 51 7 17 11 9 16 16 22 33 30 21 14 8 5 5 5 8 9 12 19 3 8 1 12 10 11 23 40 75 61 60 52 46
29 34 37 41 42 42 41 41 43 44 43 66 34 6 10 12 17 22 20 15 23 21 15 15 11 3 2 10 9 9 7 10 15 18 10 16 13 3 19 66 62 65 64 43 47
29 33 37 41 43 43 40 41 41 36 51 52 12 5 9 8 13 29 26 18 12 14 13 14 6 7 6 6 9 12 10 10 22 13 16 7 35 6 59 43 49 54 47 46 64
31 34 38 42 44 44 43 45 40 24 57 28 5 4 5 4 5 25 31 12 7 12 8 16 11 7 8 12 6 13 10 8 15 15 9 26 37 40 48 49 40 45 51 51 61
32 34 38 42 42 42 48 52 50 10 54 19 21 6 5 12 6 27 27 7 17 21 11 14 13 1 4 3 6 10 7 22 12 14 15 30 49 49 33 36 29 45 46 51 64
31 33 37 40 40 33 43 35 24 18 24 21 8 4 6 15 5 25 20 9 12 10 11 13 4 5 8 4 5 9 11 28 19 4 3 26 69 35 21 27 41 40 40 52 65
31 32 35 38 40 32 34 35 32 32 8 8 3 2 3 12 5 17 22 8 10 7 3 9 10 9 3 9 10 7 9 11 22 35 18 24 42 40 18 38 49 53 38 55 54
31 32 35 34 21 34 25 35 33 30 7 7 3 2 3 9 2 15 13 11 6 2 3 10 6 2 9 6 4 7 1 13 22 28 27 19 31 25 8 18 17 40 32 64 62
31 32 33 30 27 26 28 30 30 8 10 6 3 3 6 2 11 4 17 5 6 4 10 12 5 4 6 5 3 11 7 13 19 33 15 9 6 11 16 19 18 28 42 57 56
31 31 31 28 26 21 26 26 18 9 12 4 2 9 6 8 10 15 6 9 6 5 3 11 5 3 6 2 8 10 12 20 3 5 3 6 7 14 6 7 23 24 48 62 66
30 30 30 25 22 22 19 16 9 6 5 3 4 6 3 7 7 12 9 13 5 12 7 14 4 4 8 6 10 22 11 10 11 7 11 9 25 8 8 10 9 20 65 94 98
31 30 30 25 23 16 5 10 8 9 13 3 3 3 11 4 1 8 6 4 9 4 0 3 8 8 4 6 5 4 4 6 13 6 30 28 11 4 11 53 48 56 77 101 95
32 33 32 27 23 15 8 4 14 13 4 3 10 4 3 5 2 2 3 9 7 4 8 3 9 6 8 2 5 2 4 2 5 6 6 10 11 35 20 36 47 42 82 85 85
34 33 34 33 26 16 6 15 12 9 9 4 10 8 8 7 5 5 10 6 9 2 2 3 10 4 3 8 14 12 0 2 5 9 11 22 29 12 37 40 33 55 80 85 96
29 12 17 20 21 15 9 16 12 14 15 14 14 9 13 11 11 9 8 3 7 3 7 3 5 4 6 6 7 4 3 3 6 7 8 10 26 4 37 28 49 61 78 89 96
21 5 18 24 11 6 8 13 11 11 14 14 9 17 17 16 11 10 12 5 14 16 8 1 5 7 15 13 10 12 10 8 7 10 9 20 33 37 21 51 66 71 86 97 102
13 17 25 38 10 8 9 10 17 14 13 15 14 12 5 14 7 12 9 9 19 10 12 11 1 8 10 5 5 5 8 8 5 9 29 13 16 14 60 56 70 74 92 111 112
20 6 14 40 22 12 11 12 14 18 9 9 7 11 7 9 2 8 9 12 11 7 12 10 8 14 14 11 2 17 20 17 9 10 16 29 56 54 54 52 63 82 99 125 122
30 17 22 11 19 25 17 10 17 17 14 15 3 11 14 12 8 10 7 8 11 13 10 9 10 12 19 23 19 26 42 28 23 30 25 51 48 50 51 52 69 97 110 121 121
38 19 19 12 14 40 34 24 36 9 15 10 12 20 17 14 16 16 14 11 9 7 10 6 6 6 11 29 24 30 36 30 31 34 30 34 46 38 73 76 84 99 128 117 98
71 53 34 19 16 18 20 28 26 21 20 20 20 14 14 15 15 10 21 22 19 17 12 11 3 3 11 10 13 19 19 21 15 13 14 27 49 36 54 62 86 97 107 95 118
Wind_Direction_850mb
25 23 21 19 16 10 10 7 6 7 3 358 353 351 1 55 91 64 44 31 17 356 349 341 334 348 5 30 50 95 71 201 234 176 260 266 266 252 280 267 269 254 267 300 310
18 17 16 15 13 9 9 5 4 3 1 357 351 352 20 117 109 54 38 18 359 352 358 353 353 358 27 41 33 71 107 218 207 205 261 288 276 292 288 287 278 282 315 322 317
12 10 10 10 10 8 5 4 2 359 352 351 353 355 21 99 139 35 33 24 12 0 3 0 358 360 52 7 21 157 207 204 246 258 281 288 297 298 235 292 294 319 326 330 333
5 2 2 4 5 5 1 0 0 355 351 349 350 354 10 118 92 36 42 5 345 352 8 355 348 9 81 354 288 288 250 241 274 255 318 286 296 287 224 277 307 321 327 348 337
356 356 357 358 357 358 356 355 355 351 352 347 346 345 26 85 91 67 357 2 33 20 355 352 32 41 92 291 314 206 286 301 282 291 270 275 269 265 267 316 326 340 338 343 334
350 351 350 350 350 351 351 352 350 350 351 345 342 343 115 87 78 7 25 46 29 21 12 17 357 331 312 289 217 302 301 297 309 319 243 180 255 342 306 338 334 334 334 338 336
342 344 346 345 346 347 348 349 348 348 349 342 339 5 72 86 54 31 49 32 24 4 356 11 2 328 300 304 293 308 336 320 276 350 276 286 284 225 350 340 326 334 339 352 26
337 338 343 343 343 344 345 349 348 343 343 340 338 57 92 84 60 37 21 8 11 337 2 13 10 92 222 302 353 9 62 355 305 360 304 14 283 191 334 333 326 338 351 32 47
328 334 342 341 341 341 344 349 347 337 349 341 20 67 121 97 58 30 7 347 333 335 40 19 26 42 7 34 8 7 306 300 324 349 341 43 300 186 328 330 327 342 37 65 29
321 335 342 340 338 340 346 348 352 338 345 348 60 109 115 334 67 14 0 1 331 14 8 18 19 39 31 40 316 286 306 247 286 295 327 300 294 309 340 337 338 45 46 42 23
319 334 340 335 337 342 347 356 8 347 341 336 314 289 321 2 167 8 359 31 6 40 21 13 38 285 261 224 266 264 269 283 281 285 346 309 302 316 358 336 45 44 44 32 17
317 332 336 332 335 344 352 17 15 323 305 311 322 315 336 355 343 0 5 27 37 58 353 8 294 277 289 167 294 317 319 307 297 182 1 302 295 314 340 326 82 46 51 25 17
315 327 329 329 334 344 353 5 352 340 302 297 311 332 343 346 22 359 14 15 68 71 59 174 257 308 306 343 341 290 272 302 284 316 217 266 298 317 355 75 47 34 35 17 5
308 319 322 329 335 340 345 349 341 340 49 268 249 236 317 328 103 23 23 9 46 59 296 236 288 15 19 320 222 296 67 267 301 332 299 38 289 333 312 113 59 24 31 3 356
300 311 319 322 324 333 336 338 333 343 355 247 206 275 324 35 319 11 33 20 132 270 95 257 271 360 355 258 228 256 324 273 287 288 323 266 230 274 17 11 8 16 5 0 354
295 306 313 313 316 329 334 333 327 36 258 357 319 346 11 19 359 317 11 68 78 86 35 250 356 66 177 125 68 286 332 294 323 0 278 171 115 306 60 352 8 359 360 356 349
290 301 302 303 305 318 330 336 19 164 328 251 249 54 56 292 346 25 41 13 36 3 13 334 24 72 21 30 355 20 16 319 342 338 252 351 333 224 62 59 355 2 354 349 339
290 295 292 287 286 294 323 43 191 241 248 34 343 230 222 8 268 351 94 114 19 67 139 150 321 159 6 110 220 312 141 140 294 270 299 314 226 276 40 13 3 353 344 337 331
294 295 285 276 268 258 165 122 219 213 223 338 329 328 268 258 259 31 115 155 199 210 202 263 262 75 70 299 133 41 61 260 280 353 336 252 264 302 19 353 348 338 335 325 321
296 296 275 264 249 214 120 224 229 196 135 102 177 206 250 215 235 227 196 172 185 199 272 169 298 360 259 120 33 123 117 54 32 316 289 285 303 264 343 336 331 331 326 322 319
289 276 242 227 209 177 197 222 245 218 184 175 199 245 226 213 214 213 217 125 165 74 64 121 157 262 234 168 153 113 104 132 194 192 222 293 294 310 323 316 327 321 317 315 315
256 232 209 193 164 201 196 200 196 200 206 242 197 210 200 179 203 241 223 58 153 145 135 320 137 265 240 293 186 120 162 166 147 267 238 276 274 283 286 325 318 318 315 314 314
230 222 195 185 208 222 239 244 211 177 199 193 219 196 127 177 217 192 131 128 153 153 164 171 159 330 347 22 317 165 181 192 218 264 257 251 266 301 312 312 321 319 318 314 315
210 218 198 204 224 215 192 224 219 209 219 193 159 123 128 193 196 185 145 195 182 205 149 151 202 207 226 249 128 269 256 257 205 244 269 257 288 299 309 318 325 322 320 315 316
206 222 208 198 219 215 186 179 198 196 195 177 223 202 175 183 177 196 135 151 200 183 170 166 231 229 252 271 264 267 271 272 253 249 257 283 288 297 309 320 324 323 318 316 315
213 193 190 256 211 198 199 203 214 188 169 191 217 203 191 186 191 185 154 178 181 145 153 178 270 317 265 244 251 256 260 266 266 266 270 276 286 307 314 321 326 326 317 317 320
224 228 219 203 164 183 214 213 207 164 217 191 211 161 191 215 170 173 163 174 158 156 160 160 215 38 266 339 303 275 232 229 254 243 240 286 303 319 321 324 324 320 311 321 321